Waarnemingen

Advertentie
Mijn weer
Calvi, Frankrijk (7754): temperatuur & dauwpunt: 08.11.2019 13:00:00 - 14.11.2019 13:00:00 (CET)Calvi, Frankrijk (7754): temperatuur 5cm: 08.11.2019 13:00:00 - 14.11.2019 13:00:00 (CET)Calvi, Frankrijk (7754): windsnelheid & windstoten: 08.11.2019 13:00:00 - 14.11.2019 13:00:00 (CET)Calvi, Frankrijk (7754): windrichting: 08.11.2019 13:00:00 - 14.11.2019 13:00:00 (CET)Calvi, Frankrijk (7754): luchtdruk: 08.11.2019 13:00:00 - 14.11.2019 13:00:00 (CET)Calvi, Frankrijk (7754): zicht: 08.11.2019 13:00:00 - 14.11.2019 13:00:00 (CET)Calvi, Frankrijk (7754): neerslag: 08.11.2019 13:00:00 - 14.11.2019 13:00:00 (CET)
Datum & Tijd tt [°C] td [°C] tt 5cm [°C] ff [km/u] ff [kn] fx [km/u] fx [kn] dd ppp [hPa] vv [km] rr [mm]
14.11.2019 13:00:00 16,9 4,2 18,0 4 2 16 9 OZO 1004,1 58 0,0
14.11.2019 12:00:00 16,3 1,6 18,9 3 1 16 9 NW 1005,6 48 0,0
14.11.2019 11:00:00 16,3 3,4 17,5 6 3 22 12 OZO 1006,0 19 0,0
14.11.2019 10:00:00 14,2 5,3 14,4 4 2 9 5 ONO 1006,8 52 0,0
14.11.2019 09:00:00 10,9 5,0 5,1 4 2 15 8 ZZO 1007,1 56 0,0
14.11.2019 08:00:00 5,8 2,3 5,0 5 3 19 10 Z 1007,4 17 0,0
14.11.2019 07:00:00 6,2 2,6 3,5 13 7 16 9 ZZW 1006,2 60 0,0
14.11.2019 06:00:00 6,9 2,8 4,6 8 4 15 8 ZW 1006,1 60 0,0
14.11.2019 05:00:00 6,8 2,7 4,3 13 7 18 10 Z 1006,2 60 0,0
14.11.2019 04:00:00 6,4 2,5 4,6 4 2 16 8 ZZW 1005,9 60 0,0
14.11.2019 03:00:00 6,3 2,9 4,7 7 4 11 6 Z 1006,1 60 0,0
14.11.2019 02:00:00 6,9 3,1 5,4 8 4 16 9 ZZW 1005,7 60 0,0
14.11.2019 01:00:00 6,8 3,2 5,4 6 3 13 7 Z 1005,7 60 0,0
14.11.2019 00:00:00 7,7 3,9 6,2 6 3 16 9 ZZW 1005,8 60 0,0
13.11.2019 23:00:00 7,9 4,3 6,3 12 6 19 11 Z 1005,4 60 0,0
13.11.2019 22:00:00 8,1 4,3 7,6 18 10 24 13 ZZO 1005,5 60 0,0
13.11.2019 21:00:00 9,7 5,1 9,0 14 7 19 10 ZZO 1005,2 60 0,0
13.11.2019 20:00:00 10,8 5,5 8,7 9 5 20 11 Z 1004,4 60 0,0
13.11.2019 19:00:00 10,2 5,8 9,5 8 4 12 7 ZZW 1003,7 60 0,0
13.11.2019 18:00:00 12,1 5,5 11,1 14 8 22 12 Z 1003,3 59 0,0
13.11.2019 17:00:00 13,5 4,9 12,3 11 6 20 11 ZZW 1002,5 60 0,0
13.11.2019 16:00:00 15,5 4,8 15,3 11 6 29 16 ZZW 1002,0 60 0,0
13.11.2019 15:00:00 15,9 4,6 16,2 15 8 36 19 ZW 1001,3 60 0,0
13.11.2019 14:00:00 15,4 3,2 16,8 25 14 51 27 ZZW 1001,0 54 0,0
13.11.2019 13:00:00 14,9 4,3 15,4 31 17 56 30 ZZW 1000,9 33 0,0
13.11.2019 12:00:00 15,1 4,5 15,9 32 18 54 29 ZZW 1000,7 31 0,0
13.11.2019 11:00:00 14,4 4,7 15,1 27 15 59 32 ZZW 1000,2 33 0,0
13.11.2019 10:00:00 14,0 4,3 12,6 27 15 58 31 Z 999,4 37 0,0
13.11.2019 09:00:00 12,8 3,4 12,0 23 12 50 27 ZZW 999,9 47 0,0
13.11.2019 08:00:00 12,5 4,2 10,6 18 10 32 17 ZZW 999,4 54 0,0
13.11.2019 07:00:00 11,6 3,9 10,5 15 8 47 26 ZZW 998,2 60 0,0
13.11.2019 06:00:00 12,2 3,9 10,9 20 11 46 25 ZZW 997,3 60 0,0
13.11.2019 05:00:00 12,4 4,8 8,2 26 14 47 26 ZW 996,8 60 0,0
13.11.2019 04:00:00 11,1 6,2 9,2 5 3 20 11 ZO 996,5 60 0,0
13.11.2019 03:00:00 12,0 6,3 10,8 15 8 25 13 ZO 996,1 60 0,0
13.11.2019 02:00:00 12,2 5,4 8,4 15 8 28 15 Z 996,0 60 0,0
13.11.2019 01:00:00 9,5 6,2 8,6 10 6 19 10 Z 995,9 60 0,0
13.11.2019 00:00:00 10,4 6,9 9,5 14 7 19 10 ZZW 995,7 60 0,0
12.11.2019 23:00:00 10,5 7,9 9,8 10 5 18 10 Z 996,0 60 0,0
12.11.2019 22:00:00 11,0 9,1 10,4 13 7 17 9 ZZW 996,1 60 0,0
12.11.2019 21:00:00 11,4 9,3 10,4 9 5 13 7 Z 996,3 53 0,0
12.11.2019 20:00:00 12,0 9,7 10,9 5 3 11 6 Z 996,1 48 0,0
12.11.2019 19:00:00 13,3 10,1 12,6 5 3 12 6 Z 996,6 43 0,0
12.11.2019 18:00:00 13,3 10,7 12,7 3 1 10 5 NO 996,6 20 0,0
12.11.2019 17:00:00 13,6 10,8 13,1 5 3 20 11 O 996,6 15 0,0
12.11.2019 16:00:00 14,1 10,1 13,8 12 6 23 12 NNO 996,4 41 0,0
12.11.2019 15:00:00 13,9 10,5 13,7 18 10 27 14 N 996,5 39 0,0
12.11.2019 14:00:00 13,8 10,8 13,6 19 10 32 17 N 996,9 38 0,0
12.11.2019 13:00:00 13,7 11,6 13,5 22 12 32 17 N 997,4 33 0,0
12.11.2019 12:00:00 13,7 11,9 12,2 23 12 35 19 N 997,8 20 0,6
12.11.2019 11:00:00 12,4 11,6 12,0 8 4 14 8 ZZW 999,1 4,9 3,4
12.11.2019 10:00:00 12,5 11,7 12,1 5 3 8 4 ZZW 999,4 3,3 2,1
12.11.2019 09:00:00 12,9 12,0 12,1 4 2 25 14 N 999,8 5 2,2
12.11.2019 08:00:00 12,8 11,7 12,2 11 6 30 16 N 1000,1 4,5 1,4
12.11.2019 07:00:00 13,0 12,1 11,8 22 12 36 19 N 1000,1 6 0,4
12.11.2019 06:00:00 12,2 11,6 11,8 2 1 11 6 WZW 1000,7 2,8 10,6
12.11.2019 05:00:00 12,7 11,8 11,8 5 3 22 12 ZW 1001,4 2,7 1,2
12.11.2019 04:00:00 12,2 11,4 11,2 8 5 14 7 ZZW 1002,3 58 0,0
12.11.2019 03:00:00 11,8 10,9 11,0 5 3 12 7 ZZO 1002,8 7 1,4
12.11.2019 02:00:00 11,9 10,6 11,3 7 4 10 6 ZZW 1003,8 53 0,0
12.11.2019 01:00:00 12,1 10,7 11,3 9 5 11 6 Z 1004,7 59 0,0
12.11.2019 00:00:00 11,8 9,9 11,3 6 3 16 9 ZO 1005,2 16 0,0
11.11.2019 23:00:00 11,5 10,2 10,6 6 4 11 6 ZW 1005,5 60 0,0
11.11.2019 22:00:00 11,0 9,6 10,5 6 3 13 7 ZZW 1005,8 60 0,0
11.11.2019 21:00:00 11,2 9,6 10,5 10 5 15 8 Z 1006,1 60 0,0
11.11.2019 20:00:00 11,9 10,3 10,6 9 5 11 6 Z 1006,2 60 0,0
11.11.2019 19:00:00 12,9 10,6 11,8 5 3 12 6 W 1005,8 60 0,0
11.11.2019 18:00:00 14,1 11,1 13,4 7 4 16 8 OZO 1005,8 60 0,0
11.11.2019 17:00:00 15,0 11,4 14,4 10 6 16 9 Z 1005,1 60 0,0
11.11.2019 16:00:00 16,7 11,6 16,6 5 3 7 4 ZZW 1005,1 60 0,0
11.11.2019 15:00:00 17,0 11,5 17,1 6 3 15 8 WZW 1004,6 60 0,0
11.11.2019 14:00:00 16,8 11,1 16,6 10 6 19 10 Z 1005,1 55 0,0
11.11.2019 13:00:00 17,9 10,8 19,0 9 5 22 12 ZZW 1005,1 60 0,0
11.11.2019 12:00:00 18,7 10,0 17,9 8 4 22 12 Z 1005,4 58 0,0
11.11.2019 11:00:00 17,8 10,2 13,9 13 7 19 11 Z 1005,6 55 0,0
11.11.2019 10:00:00 13,7 11,4 12,5 8 4 16 9 WZW 1005,8 60 0,0
11.11.2019 09:00:00 12,2 10,9 10,3 11 6 20 11 ZZW 1005,7 60 0,0
11.11.2019 08:00:00 10,7 9,9 9,9 12 6 17 9 Z 1006,3 60 0,4
11.11.2019 07:00:00 11,1 10,3 10,5 6 4 13 7 Z 1006,0 12 2,8
11.11.2019 06:00:00 11,0 10,1 10,4 7 4 14 8 Z 1006,4 6 2,0
11.11.2019 05:00:00 11,0 9,7 10,1 5 3 12 7 ZZW 1006,5 20 0,0
11.11.2019 04:00:00 10,8 9,7 9,9 9 5 17 9 ZZO 1006,6 19 0,8
11.11.2019 03:00:00 10,8 9,4 10,0 11 6 14 8 Z 1006,7 19 0,6
11.11.2019 02:00:00 10,7 8,5 9,8 4 2 22 12 W 1006,9 60 0,0
11.11.2019 01:00:00 10,5 8,4 9,5 11 6 16 9 ZZO 1006,8 60 0,0
11.11.2019 00:00:00 10,8 7,8 9,3 7 4 16 8 ZZO 1006,1 23 0,0
10.11.2019 23:00:00 9,8 7,6 9,1 10 6 16 8 ZZW 1005,5 60 0,0
10.11.2019 22:00:00 10,2 7,8 9,4 8 4 16 8 Z 1005,7 60 0,2
10.11.2019 21:00:00 11,2 7,3 10,3 11 6 16 9 ZZW 1005,5 49 0,0
10.11.2019 20:00:00 11,4 7,3 10,7 4 2 16 9 ZW 1004,9 60 0,0
10.11.2019 19:00:00 11,1 8,0 10,7 13 7 16 9 Z 1004,3 60 0,0
10.11.2019 18:00:00 11,4 8,3 11,1 6 3 11 6 ZW 1004,2 27 0,0
10.11.2019 17:00:00 12,6 9,4 12,1 8 4 10 5 ZZO 1004,2 60 0,0
10.11.2019 16:00:00 13,8 8,6 13,6 0 0 6 4 N 1004,4 19 0,0
10.11.2019 15:00:00 14,6 8,1 14,7 5 3 11 6 NO 1004,8 60 0,0
10.11.2019 14:00:00 15,0 6,0 15,8 7 4 11 6 Z 1005,2 60 0,0
10.11.2019 13:00:00 14,9 5,4 16,5 6 3 9 5 NNW 1005,6 60 0,0
10.11.2019 12:00:00 15,3 4,6 16,4 4 2 7 4 N 1006,6 60 0,0
10.11.2019 11:00:00 14,1 6,2 15,9 4 2 9 5 WZW 1007,1 60 0,0
10.11.2019 10:00:00 13,4 6,9 10,3 6 3 11 6 Z 1007,4 60 0,0
10.11.2019 09:00:00 9,7 6,4 7,4 11 6 15 8 ZZW 1007,5 60 0,0
10.11.2019 08:00:00 7,4 5,4 5,7 9 5 15 8 ZZW 1007,6 60 0,0
10.11.2019 07:00:00 6,6 4,8 5,7 7 4 15 8 ZO 1007,2 60 0,0
10.11.2019 06:00:00 8,4 5,7 6,9 10 5 17 9 ZZW 1007,3 60 0,0
10.11.2019 05:00:00 9,3 6,6 8,0 10 6 18 10 ZZW 1007,5 60 0,0
10.11.2019 04:00:00 9,9 7,5 8,7 13 7 24 13 ZZO 1008,2 60 0,4
10.11.2019 03:00:00 10,8 7,3 7,1 21 11 37 20 ZW 1008,8 19 0,2
10.11.2019 02:00:00 8,0 6,1 6,5 11 6 20 11 Z 1008,5 60 0,0
10.11.2019 01:00:00 7,7 6,3 6,8 5 3 16 9 Z 1009,0 60 0,0
10.11.2019 00:00:00 7,9 6,5 6,7 4 2 8 4 ZZW 1009,4 60 0,0
09.11.2019 23:00:00 8,1 6,7 6,9 7 4 17 9 ZZW 1009,6 60 0,0
09.11.2019 22:00:00 8,1 6,9 7,2 9 5 15 8 ZZW 1009,5 60 0,0
09.11.2019 21:00:00 8,5 7,3 7,9 9 5 16 9 Z 1009,5 60 0,0
09.11.2019 20:00:00 9,9 8,7 9,3 6 3 9 5 ZZW 1009,3 60 0,0
09.11.2019 19:00:00 10,3 8,9 9,9 4 2 14 7 W 1009,3 60 0,0
09.11.2019 18:00:00 10,9 9,3 9,9 13 7 16 9 Z 1009,2 20 0,4
09.11.2019 17:00:00 11,0 9,9 10,3 9 5 18 10 Z 1008,7 7 3,5
09.11.2019 16:00:00 11,0 9,6 10,3 9 5 18 10 ZZW 1008,4 4,5 3,8
09.11.2019 15:00:00 11,9 9,5 11,5 9 5 22 12 ZZW 1008,0 14 0,2
09.11.2019 14:00:00 14,2 8,2 15,0 6 4 14 8 NW 1007,7 60 0,0
09.11.2019 13:00:00 14,2 8,2 15,7 7 4 12 7 NNW 1008,0 60 0,0
09.11.2019 12:00:00 14,6 8,3 14,1 5 3 14 8 NNW 1008,3 53 0,0
09.11.2019 11:00:00 13,5 8,8 14,2 9 5 22 12 Z 1008,9 60 0,0
09.11.2019 10:00:00 13,7 9,3 13,4 6 3 13 7 ZZW 1008,7 60 0,0
09.11.2019 09:00:00 11,3 8,5 8,2 7 4 14 8 Z 1008,7 60 0,0
09.11.2019 08:00:00 8,4 7,0 7,1 6 3 12 6 Z 1008,5 60 0,0
09.11.2019 07:00:00 7,8 6,3 6,8 6 3 11 6 ZZW 1007,9 60 0,0
09.11.2019 06:00:00 8,2 7,0 7,6 11 6 16 9 Z 1007,5 60 0,0
09.11.2019 05:00:00 8,9 7,5 8,0 9 5 13 7 ZW 1007,5 60 0,4
09.11.2019 04:00:00 10,1 7,5 8,7 10 6 22 12 ZZW 1007,6 8 0,8
09.11.2019 03:00:00 9,9 7,7 8,2 12 6 19 11 Z 1007,5 15 0,2
09.11.2019 02:00:00 9,4 7,0 8,2 15 8 26 14 Z 1007,3 60 1,1
09.11.2019 01:00:00 9,8 7,2 8,7 16 9 27 15 Z 1007,9 19 0,8
09.11.2019 00:00:00 9,6 7,0 8,2 14 8 28 15 ZZW 1007,2 60 0,6
08.11.2019 23:00:00 9,9 6,8 8,3 18 10 45 24 ZZW 1007,6 60 2,2
08.11.2019 22:00:00 10,0 6,5 8,7 11 6 29 16 ZW 1006,6 60 0,0
08.11.2019 21:00:00 9,9 6,2 8,5 14 8 23 12 ZZW 1006,5 37 0,0
08.11.2019 20:00:00 9,4 6,7 8,1 17 9 30 16 Z 1006,5 51 3,1
08.11.2019 19:00:00 9,6 7,2 8,5 16 8 37 20 Z 1006,5 8 1,0
08.11.2019 18:00:00 10,6 8,4 9,4 18 10 33 18 ZZO 1005,1 4,9 2,2
08.11.2019 17:00:00 11,0 7,5 10,3 10 5 27 15 Z 1004,4 60 0,0
08.11.2019 16:00:00 13,9 7,6 13,5 8 5 23 12 ZW 1004,1 60 0,0
08.11.2019 15:00:00 14,0 8,8 14,0 9 5 24 13 ZZW 1003,6 60 0,0
08.11.2019 14:00:00 14,8 9,2 15,0 13 7 23 12 ZZW 1003,5 60 0,0
08.11.2019 13:00:00 14,3 9,9 15,0 11 6 21 11 Z 1003,7 60 0,0

tt = temperatuur
td = dauwpunt
tt 5cm = temperatuur 5cm
ff = windsnelheid
fx = windstoten
dd = windrichting
ppp = luchtdruk
vv = zicht
rr = neerslag

Weerstations in de omgeving